STARLINK-1527, 46048

Orbit data source: Space-Track

STARLINK-1527, 46048 is a payload satellite owned by SpaceX/Seattle (US) in LEO that was launched on Fri, 07 Aug 2020 UTC via an FALCON 9 launch vehicle from the Air Force Eastern Test Range (AFETR). Payload-class satellites include a variety of spacecraft equipped with specific instruments for various scientific and technological missions. These include communications satellites like Starlink; space stations such as the ISS; scientific satellites like the Hubble; Earth observation satellites from companies like Planet Labs, Umbra, and HawkEye 360; GPS; miniature CubeSats for education and research; and military/defense satellites.

Loading next visibility...
Identifier
46048, 2020-055X
Orbit
LEO
Country
Flag of USUS
Related business
Manufacturer
SpaceX/Seattle
Mission
Operational Commercial Communications
Bus & Motor
STARLINK, Unknown motor
Mass
260 kg wet, ~248 kg dry
Launch date (UTC)
2020-08-07 (6 years ago)
Launch vehicle
FALCON 9
Launch site
Air Force Eastern Test Range (AFETR)
Object type
Payload
Rocket body
Debris
Shape & HBR
Box + 1 Pan, 10.1 m
Radar Cross Section
13.562 m², Large (>1 m²)

Expand to show TLE details & history
Last TLE update: 22 hours ago

TLE from 22 hours ago
0 STARLINK-1527
1 46048U 20055X   26169.83653589  .00001279  00000-0  52947-4 0  9995
2 46048  53.1605   3.4503 0000982  74.3221 285.7889 15.31716897324539
Epoch: 2026-06-18T20:04Z
TLE epoch observation values (Epoch: 2026-06-18T20:04:36.700Z)
Latitude
-0.00002°
Longitude
155.22322°
Altitude
471.407 km
Speed
7.632 km/s
True Right ascension
00h 13m 48s
True Declination
0° 00' 00"
Sunlit
Object was in daylight at epoch
Visualization orbit readout
Latitude
Unknown
Longitude
Unknown
Altitude
Unknown
Speed
Unknown
Apparent Right ascension
Unknown
Apparent Declination
Unknown
Sunlit
N/A
Visualization observer readout
Local Sidereal Time
04:59:09
Azimuth
Unknown
Elevation
Unknown
Doppler factor
Unknown
Orbital elements
Apogee altitude
471.619 km
Perigee altitude
470.274 km
Semi-major axis
6,849.083 km
Eccentricity
0.0001
Inclination
53.1605°
RAAN
3.4503°
Arg. of periapsis
74.3221°
True anomaly
285.77807°
Mean anomaly
285.7889°
Eccentric anomaly
285.78349°
Mean motion
3.82908 °/min
Orbital period
94.02 mins
BSTAR
0.000052947
Loading maneuver chart data...
Computing Atmospheric mass density...

Documentation

Showing up to 5 results
|